File backup.txt content, last update Monday February 6 2023, 04:08:18


1675650546 Temp=-4.13*C Humidity=67.93% Pressure=102395.84Pa
1675650606 Temp=-4.13*C Humidity=67.89% Pressure=102395.82Pa
1675650666 Temp=-4.13*C Humidity=67.86% Pressure=102394.29Pa
1675650726 Temp=-4.13*C Humidity=67.85% Pressure=102397.12Pa
1675650786 Temp=-4.14*C Humidity=67.86% Pressure=102394.30Pa
1675650846 Temp=-4.14*C Humidity=67.83% Pressure=102398.88Pa
1675650906 Temp=-4.14*C Humidity=67.84% Pressure=102393.61Pa
1675650966 Temp=-4.14*C Humidity=67.86% Pressure=102398.01Pa
1675651026 Temp=-4.14*C Humidity=67.82% Pressure=102401.05Pa
1675651086 Temp=-4.12*C Humidity=67.83% Pressure=102399.96Pa
1675651146 Temp=-4.13*C Humidity=67.81% Pressure=102392.34Pa
1675651207 Temp=-4.11*C Humidity=67.77% Pressure=102398.24Pa
1675651267 Temp=-4.12*C Humidity=67.73% Pressure=102398.67Pa
1675651326 Temp=-4.11*C Humidity=67.70% Pressure=102397.59Pa
1675651387 Temp=-4.12*C Humidity=67.72% Pressure=102397.13Pa
1675651446 Temp=-4.12*C Humidity=67.68% Pressure=102399.54Pa
1675651506 Temp=-4.12*C Humidity=67.64% Pressure=102393.42Pa
1675651566 Temp=-4.12*C Humidity=67.61% Pressure=102389.27Pa
1675651626 Temp=-4.13*C Humidity=67.55% Pressure=102388.63Pa
1675651686 Temp=-4.14*C Humidity=67.49% Pressure=102387.95Pa
1675651746 Temp=-4.17*C Humidity=67.43% Pressure=102389.44Pa
1675651806 Temp=-4.21*C Humidity=67.38% Pressure=102387.23Pa
1675651866 Temp=-4.25*C Humidity=67.38% Pressure=102381.74Pa
1675651926 Temp=-4.27*C Humidity=67.41% Pressure=102385.02Pa
1675651986 Temp=-4.29*C Humidity=67.45% Pressure=102386.31Pa
1675652046 Temp=-4.33*C Humidity=67.48% Pressure=102386.07Pa
1675652106 Temp=-4.34*C Humidity=67.52% Pressure=102382.99Pa
1675652166 Temp=-4.36*C Humidity=67.60% Pressure=102380.78Pa
1675652226 Temp=-4.38*C Humidity=67.67% Pressure=102378.38Pa
1675652286 Temp=-4.40*C Humidity=67.75% Pressure=102377.48Pa
1675652346 Temp=-4.40*C Humidity=67.82% Pressure=102376.40Pa
1675652406 Temp=-4.40*C Humidity=67.90% Pressure=102370.95Pa
1675652466 Temp=-4.40*C Humidity=67.96% Pressure=102369.64Pa
1675652526 Temp=-4.39*C Humidity=68.00% Pressure=102367.48Pa
1675652586 Temp=-4.38*C Humidity=68.05% Pressure=102366.59Pa
1675652646 Temp=-4.37*C Humidity=68.11% Pressure=102361.37Pa
1675652707 Temp=-4.37*C Humidity=68.13% Pressure=102358.75Pa
1675652766 Temp=-4.33*C Humidity=68.17% Pressure=102366.86Pa
1675652826 Temp=-4.32*C Humidity=68.18% Pressure=102369.49Pa
1675652887 Temp=-4.31*C Humidity=68.16% Pressure=102364.68Pa
Showing last 40 lines from file [/srv/app/pi-web01/chroot/pi-ws02/var/backup.txt] (60 total lines).

Station Logs

File Name
sensor.txt
backup.txt
outage.log
outlier.log
rrd.log
Display Limit